Location: Rumah Apan
(2.7833°N, 113.9500°E)
Time: 17:15:57
(UTC+00:00)

GPS 2-14 Rocket1 - Pass Details

Date: 25 July 2021
Orbit: 474 x 537 km, 20.7° (Epoch: 18 September)

Event Time Altitude Azimuth Distance (km) Brightness Sun altitude
Rises 10:54:31 0° 292° (WNW) 2,512 9.3 -4.7°
Reaches altitude 10° 10:56:44 10° 292° (WNW) 1,629 7.2 -5.2°
Maximum altitude 11:00:29 90° 214° (SW) 472 2.5 -6.1°
Drops below altitude 10° 11:04:13 10° 112° (ESE) 1,621 4.5 -6.9°
Enters shadow 11:04:29 - 112° (ESE) 1,723 4.6 -7.0°
